Location: Prairie State College
(41.5244°N, 87.6382°W)
Time: 18:11:11
(UTC-06:00)

MSX - Visible Passes

Search period start: 05 February 2016 00:00
Search period end: 15 February 2016 00:00
Orbit: 895 x 906 km, 98.7° (Epoch: 02 February)

Date Brightness Start Highest point End Pass type
(mag) Time Alt. Az. Time Alt. Az. Time Alt. Az.
05 Feb 3.9 18:04:08 10° SSE 18:09:46 60° ENE 18:15:28 10° N visible
05 Feb 6.3 19:47:50 10° SW 19:51:53 20° W 19:55:59 10° NW visible
06 Feb 3.8 18:06:52 10° SSE 18:12:33 63° ENE 18:18:16 10° N visible
06 Feb 6.4 19:50:50 10° SW 19:54:43 18° W 19:58:38 10° NW visible
07 Feb 3.8 18:09:37 10° SSE 18:15:20 67° ENE 18:21:05 10° N visible
07 Feb 6.5 19:53:50 10° SW 19:57:32 17° W 20:01:16 10° NW visible
08 Feb 3.8 18:12:23 10° SSE 18:18:06 71° ENE 18:23:52 10° N visible
08 Feb 6.6 19:56:52 10° SW 20:00:22 16° W 20:03:53 10° NW visible
09 Feb 3.8 18:15:09 10° SSE 18:20:53 75° ENE 18:26:41 10° N visible
09 Feb 6.6 19:59:56 10° SW 20:03:12 15° W 20:06:29 10° NW visible
10 Feb 3.8 18:17:55 10° SSE 18:23:41 79° ENE 18:29:29 10° N visible
10 Feb 6.7 20:03:01 10° WSW 20:06:01 14° W 20:09:04 10° WNW visible
11 Feb 3.8 18:20:42 10° SSE 18:26:28 83° ENE 18:32:17 10° NNW visible
11 Feb 6.8 20:06:08 10° WSW 20:08:51 13° W 20:11:36 10° WNW visible
12 Feb 3.8 18:23:28 10° SSE 18:29:15 87° ENE 18:35:04 10° NNW visible
12 Feb 6.8 20:09:18 10° WSW 20:11:41 13° W 20:14:05 10° WNW visible
13 Feb 3.9 18:26:15 10° SSE 18:32:02 88° WSW 18:37:52 10° NNW visible
13 Feb 6.9 20:12:33 10° WSW 20:14:31 12° W 20:16:30 10° WNW visible
14 Feb 3.9 18:29:03 10° SSE 18:34:50 84° WSW 18:40:39 10° NNW visible
14 Feb 6.9 20:15:56 10° WSW 20:17:22 11° W 20:18:48 10° WNW visible
